[[{"header":{"parameterUnit":"m.s-1","parameterCategory":2,"la1":30.2991,"la2":30.254,"lo1":-89.0895,"lo2":-89.0444,"dy":0.0017,"dx":0.0017,"nx":28,"ny":28,"refTime":"2024-07-04T09:00:00:Z","depth":"0","parameterNumber":2,"parameterNumberName":"U-component_of_CURRENTS"},"data":[0,0,0,0,0,0,0,0,0,0,0,0,0,0,0,0,0,0,0,0,0,0,0,0,0,0,0,0,0,0,0,0,0,0,0,0,0,0,0,0,0,0,0,0,0,0,0,0,0,0,0,0,0,0,0,0,0,0,-0.277,-0.2772,0,-0.3008,-0.3012,-0.3016,-0.3135,-0.3134,-0.3133,-0.3132,-0.3152,-0.3154,-0.3155,0,0,0,0,0,0,0,0,0,0,0,0,0,-0.264,-0.2641,-0.277,-0.2772,-0.2774,-0.3008,-0.3012,-0.3017,-0.3135,-0.3134,-0.3133,-0.3131,-0.3152,-0.3154,-0.3156,0,0,0,0,0,0,0,0,0,0,0,0,0,-0.278,-0.2642,-0.277,-0.2852,-0.2861,-0.3007,-0.3012,-0.3018,-0.3136,-0.3134,-0.3132,-0.3131,-0.3151,-0.3154,-0.3156,-0.3204,0,0,-0.3163,-0.3164,0,0,0,0,0,0,0,0,-0.2772,-0.2787,-0.2838,-0.2846,-0.2856,-0.3029,-0.2973,-0.3065,-0.3136,-0.3045,-0.3132,-0.313,-0.3084,-0.3092,-0.3161,-0.3205,-0.3206,-0.3163,-0.3165,-0.3166,-0.3166,0,0,0,0,0,0,0,-0.2762,-0.2778,-0.2877,-0.284,-0.2851,-0.2952,-0.2969,-0.2994,-0.3076,-0.3052,-0.3059,-0.3066,-0.3089,-0.3159,-0.3162,-0.3206,-0.3163,-0.3165,-0.3167,-0.3168,-0.3195,-0.3194,0,0,0,0,0,0,-0.2698,-0.2768,-0.287,-0.2883,-0.2795,-0.2953,-0.2974,-0.2986,-0.3081,-0.3092,-0.3067,-0.307,-0.3156,-0.3159,-0.3162,-0.3157,-0.3166,-0.3168,-0.3169,-0.3195,-0.3195,-0.3194,0,0,0,0,0,0,-0.2694,-0.2705,-0.286,-0.2821,-0.2846,-0.2954,-0.2969,-0.2991,-0.3045,-0.3092,-0.3101,-0.3093,-0.3155,-0.3159,-0.3183,-0.316,-0.3169,-0.3171,-0.3196,-0.3195,-0.3194,-0.3187,0,0,0,0,0,0,-0.269,-0.2702,-0.2703,-0.2816,-0.2845,-0.2934,-0.297,-0.2996,-0.3046,-0.3053,-0.3117,-0.312,-0.3154,-0.318,-0.3185,-0.3163,-0.3173,-0.3197,-0.3196,-0.3194,-0.3188,-0.3186,-0.3184,0,0,0,0,0,-0.2684,-0.2692,-0.2702,-0.2714,-0.2838,-0.2934,-0.2961,-0.3041,-0.3048,-0.3083,-0.3122,-0.3117,-0.3173,-0.3183,-0.3189,-0.3167,-0.3198,-0.3196,-0.3195,-0.3189,-0.3187,-0.3184,0,0,0,0,0,0,-0.2647,-0.2706,-0.272,-0.2747,-0.2821,-0.2948,-0.2981,-0.303,-0.3102,-0.3086,-0.3134,-0.3142,-0.3156,-0.3158,-0.3167,-0.3167,-0.3173,-0.3173,-0.3167,-0.3165,-0.3162,-0.312,-0.3175,0,0,0,0,0,-0.2629,-0.2644,-0.2723,-0.2744,-0.2767,-0.2869,-0.2917,-0.2965,-0.3033,-0.3066,-0.3117,-0.3139,-0.3163,-0.3159,-0.3195,-0.3198,-0.3174,-0.3177,-0.3175,-0.3173,-0.314,-0.3108,-0.31,-0.3189,-0.3189,-0.3189,0,0,-0.2618,-0.2652,-0.2661,-0.2736,-0.2795,-0.2842,-0.2898,-0.2952,-0.2986,-0.3047,-0.3107,-0.3148,-0.3167,-0.319,-0.3189,-0.318,-0.3137,-0.3171,-0.317,-0.3137,-0.3106,-0.3097,-0.3089,-0.3187,-0.3188,-0.3188,0,0,-0.2615,-0.2629,-0.2645,-0.2694,-0.2757,-0.2815,-0.2816,-0.2928,-0.2968,-0.3028,-0.3071,-0.309,-0.3149,-0.316,-0.3165,-0.3158,-0.3144,-0.3164,-0.3103,-0.3074,-0.3066,-0.3059,-0.3027,-0.3017,-0.3143,-0.3143,-0.3143,0,-0.26,-0.2632,-0.267,-0.2701,-0.2734,-0.2787,-0.2822,-0.2872,-0.2983,-0.3003,-0.3024,-0.3103,-0.3124,-0.312,-0.3125,-0.3149,-0.3136,-0.3119,-0.3071,-0.3063,-0.3055,-0.3025,-0.3014,-0.3143,-0.3143,-0.3143,-0.3143,0,-0.2614,-0.2641,-0.2652,-0.2695,-0.2737,-0.2773,-0.2821,-0.286,-0.2897,-0.295,-0.2977,-0.3028,-0.3063,-0.307,-0.3099,-0.3057,-0.3068,-0.3091,-0.3078,-0.3046,-0.3016,-0.3005,-0.3142,-0.3142,-0.3142,-0.3143,0,0,-0.2576,-0.265,-0.2651,-0.2677,-0.2734,-0.2773,-0.2789,-0.2841,-0.2852,-0.2907,-0.2931,-0.2957,-0.2981,-0.2985,-0.3017,-0.2978,-0.2931,-0.3005,-0.3004,-0.2973,-0.2864,-0.2796,-0.2777,-0.2957,-0.2955,-0.2953,-0.2868,0,-0.2581,-0.2635,-0.267,-0.2712,-0.2743,-0.2779,-0.2806,-0.2838,-0.2872,-0.2907,-0.2894,-0.2934,-0.2945,-0.2971,-0.2928,-0.296,-0.2898,-0.295,-0.2898,-0.2895,-0.2837,-0.276,-0.2644,-0.2551,-0.2857,-0.2855,-0.2853,0,-0.2579,-0.2618,-0.2665,-0.2731,-0.2745,-0.2769,-0.2804,-0.2836,-0.2855,-0.2883,-0.2877,-0.2903,-0.2869,-0.2884,-0.2827,-0.2869,-0.2841,-0.2835,-0.2832,-0.2752,-0.2803,-0.2629,-0.2519,-0.25,-0.2836,-0.2837,-0.2838,0,-0.2533,-0.2611,-0.2647,-0.2667,-0.2742,-0.2758,-0.279,-0.2823,-0.2846,-0.286,-0.2878,-0.2851,-0.2854,-0.2804,-0.2788,-0.2814,-0.2716,-0.2759,-0.2648,-0.2645,-0.252,-0.2508,-0.2374,-0.2661,-0.2661,-0.2661,-0.2662,0,-0.2519,-0.2539,-0.2627,-0.2639,-0.2665,-0.2732,-0.2752,-0.278,-0.2824,-0.2833,-0.2855,-0.2847,-0.2834,-0.2794,-0.2761,-0.2658,-0.2686,-0.2596,-0.2599,-0.2516,-0.2505,-0.2464,-0.2512,-0.2658,-0.2659,-0.266,-0.266,0,-0.2438,-0.251,-0.254,-0.262,-0.264,-0.2645,-0.2718,-0.2743,-0.2794,-0.2804,-0.2808,-0.2834,-0.2779,-0.2743,-0.2677,-0.2623,-0.2494,-0.2494,-0.2394,-0.2384,-0.2257,-0.2311,-0.2184,-0.2123,-0.2345,-0.2343,-0.2341,0,-0.2397,-0.2409,-0.2484,-0.2502,-0.253,-0.2568,-0.2602,-0.2691,-0.2727,-0.2782,-0.2781,-0.2754,-0.269,-0.2566,-0.2477,-0.236,-0.2378,-0.2194,-0.2198,-0.2183,-0.2247,-0.2304,-0.2267,-0.2042,-0.2038,-0.2034,-0.2031,0,-0.2287,-0.2315,-0.234,-0.2377,-0.2415,-0.2447,-0.251,-0.2521,-0.2624,-0.2626,-0.2602,-0.2553,-0.249,-0.2322,-0.2212,-0.2133,-0.2146,-0.2115,-0.2116,-0.1981,-0.2015,-0.1981,-0.2188,-0.1999,-0.2002,-0.2005,-0.2006,-0.2008,-0.2176,-0.2165,-0.2204,-0.2217,-0.2263,-0.2262,-0.2181,-0.2248,-0.2216,-0.2086,-0.2322,-0.2135,-0.2194,-0.201,-0.1947,-0.1814,-0.1905,-0.1742,-0.1804,-0.186,-0.1792,-0.1918,-0.1733,-0.1734,-0.1736,-0.1737,-0.1738,0,-0.2027,-0.2032,-0.2046,-0.2029,-0.1981,-0.2072,-0.2061,-0.1913,-0.1735,-0.1674,-0.1606,-0.1661,-0.1608,-0.1643,-0.1634,-0.1538,-0.1518,-0.1495,-0.1544,-0.1517,-0.1612,-0.1588,-0.1342,-0.1342,-0.1342,-0.1342,-0.1342,-0.1342,-0.195,-0.1904,-0.1909,-0.1741,-0.1714,-0.154,-0.1456,-0.1264,-0.1128,-0.0846,-0.0763,-0.0768,-0.1155,-0.1547,-0.153,-0.1444,-0.1427,-0.1366,-0.142,-0.1504,-0.1533,-0.156,-0.1544,-0.1293,-0.1293,-0.1241,-0.1241,-0.1241]},{"header":{"parameterUnit":"m.s-1","parameterCategory":2,"la1":30.2991,"la2":30.254,"lo1":-89.0895,"lo2":-89.0444,"dy":0.0017,"dx":0.0017,"nx":28,"ny":28,"refTime":"2024-07-04T09:00:00:Z","depth":"0","parameterNumber":3,"parameterNumberName":"V-component_of_CURRENTS"},"data":[0,0,0,0,0,0,0,0,0,0,0,0,0,0,0,0,0,0,0,0,0,0,0,0,0,0,0,0,0,0,0,0,0,0,0,0,0,0,0,0,0,0,0,0,0,0,0,0,0,0,0,0,0,0,0,0,0,0,-0.0224,-0.0222,0,0.0029,0.0034,0.0038,0.0245,0.0246,0.0246,0.0247,0.0448,0.0452,0.0457,0,0,0,0,0,0,0,0,0,0,0,0,0,-0.0293,-0.0293,-0.0224,-0.0222,-0.022,0.0029,0.0034,0.0039,0.0245,0.0246,0.0246,0.0247,0.0446,0.0452,0.0457,0,0,0,0,0,0,0,0,0,0,0,0,0,-0.016,-0.0293,-0.0224,-0.0099,-0.0086,0.0028,0.0034,0.004,0.0245,0.0246,0.0247,0.0248,0.0444,0.0451,0.0458,0.048,0,0,0.048,0.0483,0,0,0,0,0,0,0,0,-0.0168,-0.0155,-0.0119,-0.0108,-0.0094,0.0093,0.0082,0.0179,0.0244,0.0136,0.0247,0.0248,0.0313,0.0331,0.04,0.049,0.0498,0.048,0.0485,0.0488,0.049,0,0,0,0,0,0,0,-0.0178,-0.0164,-0.0107,-0.0118,-0.0102,0.0024,0.0044,0.0105,0.0226,0.0145,0.0157,0.0159,0.0322,0.0393,0.0405,0.0501,0.048,0.0486,0.0491,0.0493,0.0629,0.0629,0,0,0,0,0,0,-0.0254,-0.0174,-0.0116,-0.0101,-0.0147,0.0022,0.0045,0.0045,0.0227,0.0252,0.0158,0.0168,0.038,0.0397,0.0413,0.0463,0.0488,0.0494,0.0498,0.063,0.0629,0.0629,0,0,0,0,0,0,-0.0257,-0.0252,-0.0126,-0.0144,-0.0121,0.0018,0.0019,0.0049,0.0108,0.0235,0.0263,0.0182,0.0382,0.0403,0.0466,0.0471,0.0497,0.0504,0.0631,0.063,0.0629,0.0554,0,0,0,0,0,0,-0.026,-0.0254,-0.0265,-0.015,-0.0124,-0.008,0.0017,0.0052,0.0101,0.0116,0.0264,0.0286,0.0384,0.0455,0.0473,0.0481,0.0509,0.0631,0.063,0.0629,0.0557,0.055,0.0544,0,0,0,0,0,-0.0263,-0.0283,-0.0267,-0.026,-0.0149,-0.0083,-0.0055,0.006,0.0099,0.012,0.0224,0.0281,0.046,0.046,0.0481,0.0492,0.0632,0.0631,0.0629,0.056,0.0551,0.0545,0,0,0,0,0,0,-0.0303,-0.0263,-0.0242,-0.0246,-0.0189,-0.0054,-0.0027,0.0034,0.0138,0.0148,0.0277,0.0306,0.0379,0.0423,0.0419,0.0524,0.0553,0.0555,0.0492,0.0486,0.048,0.0396,0.0515,0,0,0,0,0,-0.0334,-0.0342,-0.0281,-0.0283,-0.0269,-0.0159,-0.0117,-0.0054,0.004,0.009,0.0197,0.0296,0.0392,0.0423,0.0521,0.0554,0.0581,0.0571,0.0565,0.056,0.0504,0.0551,0.0543,0.0624,0.0624,0.0624,0,0,-0.0352,-0.0332,-0.0334,-0.0295,-0.0235,-0.0215,-0.0125,-0.0087,-0.0057,0.0087,0.0173,0.0286,0.0399,0.0479,0.0508,0.051,0.0559,0.0558,0.0553,0.0499,0.0548,0.054,0.0533,0.0623,0.0623,0.0623,0,0,-0.0392,-0.0381,-0.0401,-0.0372,-0.0329,-0.0265,-0.0277,-0.0166,-0.0103,-0.0038,0.0099,0.0186,0.0318,0.0418,0.0477,0.047,0.0541,0.0512,0.0398,0.0446,0.0439,0.0433,0.0489,0.0488,0.0489,0.0488,0.0488,0,-0.0415,-0.0435,-0.0392,-0.0402,-0.0387,-0.0309,-0.0318,-0.0248,-0.0122,-0.008,-0.004,0.0182,0.0282,0.038,0.0393,0.0455,0.0494,0.0426,0.0436,0.0431,0.0426,0.0484,0.0485,0.0485,0.0485,0.0486,0.0486,0,-0.0465,-0.0482,-0.0493,-0.0487,-0.0462,-0.046,-0.0395,-0.0346,-0.0281,-0.02,-0.0095,0.0052,0.0174,0.0234,0.031,0.0347,0.0393,0.0443,0.0451,0.0413,0.0478,0.048,0.0479,0.0481,0.0482,0.0483,0,0,-0.0515,-0.0527,-0.0534,-0.0549,-0.0513,-0.0498,-0.0472,-0.0414,-0.0386,-0.0282,-0.0228,-0.0074,0.0006,0.0071,0.0199,0.0221,0.0252,0.0292,0.0297,0.0337,0.0361,0.0448,0.0459,0.0312,0.0311,0.031,0.0432,0,-0.0566,-0.0619,-0.06,-0.0636,-0.0657,-0.0592,-0.0565,-0.0506,-0.043,-0.0351,-0.024,-0.0131,-0.0054,0.002,0.005,0.023,0.0246,0.0213,0.0397,0.0401,0.0475,0.046,0.0524,0.0641,0.0434,0.0435,0.0435,0,-0.0626,-0.0653,-0.0707,-0.0716,-0.0717,-0.0714,-0.0666,-0.0633,-0.0526,-0.0463,-0.0378,-0.0258,-0.0164,-0.0107,0.0068,0.0049,0.0162,0.0264,0.0273,0.0362,0.0489,0.064,0.0653,0.0829,0.0438,0.0438,0.0438,0,-0.0694,-0.073,-0.0779,-0.0784,-0.0772,-0.0769,-0.0748,-0.0664,-0.0632,-0.053,-0.0488,-0.0357,-0.0262,-0.0145,0.0071,0.0072,0.0252,0.0303,0.0473,0.0483,0.057,0.0588,0.0755,0.0364,0.0364,0.0364,0.0363,0,-0.0765,-0.0803,-0.0815,-0.0843,-0.0881,-0.0842,-0.0848,-0.0797,-0.072,-0.0673,-0.0553,-0.0473,-0.0275,-0.0121,0.0034,0.0268,0.0233,0.0427,0.0507,0.0552,0.0566,0.0749,0.0819,0.0368,0.0367,0.0367,0.0366,0,-0.0835,-0.0846,-0.0903,-0.0913,-0.092,-0.0945,-0.0931,-0.0924,-0.084,-0.0774,-0.0744,-0.0553,-0.0338,-0.0133,0.0114,0.0255,0.0581,0.054,0.0583,0.0663,0.0972,0.1034,0.1221,0.1342,0.0733,0.0735,0.0737,0,-0.0876,-0.0913,-0.0967,-0.1006,-0.1016,-0.1044,-0.1059,-0.0996,-0.0971,-0.0801,-0.0767,-0.0546,-0.0341,0.004,0.0319,0.0604,0.0716,0.0809,0.0804,0.0975,0.1103,0.1127,0.1216,0.0911,0.0915,0.0918,0.092,0,-0.0943,-0.096,-0.1007,-0.1089,-0.1131,-0.1167,-0.1168,-0.1151,-0.1038,-0.091,-0.0694,-0.051,-0.0149,0.0242,0.0589,0.0747,0.0957,0.0876,0.1045,0.1226,0.1269,0.1431,0.0853,0.0946,0.0943,0.0941,0.094,0.0939,-0.0979,-0.1033,-0.1093,-0.1156,-0.121,-0.1227,-0.1184,-0.1123,-0.0993,-0.0699,-0.0563,-0.0143,0.0228,0.0752,0.0925,0.1279,0.1205,0.138,0.1434,0.1437,0.1561,0.1032,0.122,0.122,0.1219,0.1218,0.1217,0,-0.1011,-0.1068,-0.1151,-0.1195,-0.1209,-0.1239,-0.1199,-0.1071,-0.0821,-0.0558,-0.0217,0.0465,0.0895,0.121,0.1628,0.1827,0.1862,0.1902,0.1947,0.201,0.1548,0.1563,0.1845,0.1845,0.1845,0.1845,0.1845,0.1844,-0.103,-0.1109,-0.1146,-0.1155,-0.1163,-0.109,-0.1019,-0.0811,-0.0584,-0.0016,0.0476,0.082,0.127,0.1897,0.2276,0.2303,0.249,0.2449,0.2552,0.2232,0.2187,0.2143,0.2175,0.2581,0.2582,0.3005,0.3009,0.3012]}],[{"header":{"parameterUnit":"m.s-1","parameterCategory":2,"la1":30.2991,"la2":30.254,"lo1":-89.0895,"lo2":-89.0444,"dy":0.0017,"dx":0.0017,"nx":28,"ny":28,"refTime":"2024-07-04T09:00:00:Z","depth":"2","parameterNumber":2,"parameterNumberName":"U-component_of_CURRENTS"},"data":[0,0,0,0,0,0,0,0,0,0,0,0,0,0,0,0,0,0,0,0,0,0,0,0,0,0,0,0,0,0,0,0,0,0,0,0,0,0,0,0,0,0,0,0,0,0,0,0,0,0,0,0,0,0,0,0,0,0,-0.2591,-0.2591,0,-0.2625,-0.2625,-0.2625,-0.2595,-0.2595,-0.2594,-0.2593,-0.266,-0.2662,-0.2665,0,0,0,0,0,0,0,0,0,0,0,0,0,-0.2484,-0.2485,-0.2591,-0.2592,-0.2592,-0.2625,-0.2625,-0.2625,-0.2596,-0.2595,-0.2594,-0.2593,-0.2659,-0.2662,-0.2665,0,0,0,0,0,0,0,0,0,0,0,0,0,-0.252,-0.2486,-0.259,-0.2586,-0.2586,-0.2625,-0.2625,-0.2625,-0.2596,-0.2595,-0.2594,-0.2593,-0.2658,-0.2662,-0.2665,-0.2709,0,0,-0.2677,-0.2678,0,0,0,0,0,0,0,0,-0.2518,-0.2523,-0.2586,-0.2586,-0.2587,-0.261,-0.2612,-0.2656,-0.2596,-0.2586,-0.2593,-0.2592,-0.2651,-0.2655,-0.2655,-0.2712,-0.2715,-0.2677,-0.2679,-0.2681,-0.2682,0,0,0,0,0,0,0,-0.2515,-0.2521,-0.2598,-0.2587,-0.2588,-0.2577,-0.2581,-0.2619,-0.262,-0.2587,-0.2586,-0.26,-0.265,-0.2652,-0.2657,-0.2716,-0.2677,-0.268,-0.2682,-0.2684,-0.2886,-0.2889,0,0,0,0,0,0,-0.2525,-0.252,-0.2597,-0.26,-0.2556,-0.2581,-0.2584,-0.2599,-0.2619,-0.2622,-0.26,-0.2598,-0.2646,-0.2652,-0.2659,-0.2688,-0.2681,-0.2684,-0.2686,-0.2882,-0.2886,-0.289,0,0,0,0,0,0,-0.2523,-0.2532,-0.2596,-0.2564,-0.2573,-0.2584,-0.26,-0.26,-0.2606,-0.263,-0.2632,-0.2607,-0.2645,-0.2654,-0.2706,-0.2691,-0.2686,-0.2689,-0.2879,-0.2884,-0.2888,-0.2761,0,0,0,0,0,0,-0.2519,-0.2531,-0.2536,-0.2566,-0.2575,-0.2624,-0.2602,-0.2602,-0.2618,-0.2615,-0.2637,-0.2641,-0.2645,-0.2701,-0.271,-0.2696,-0.2692,-0.2875,-0.2881,-0.2886,-0.2761,-0.2761,-0.2761,0,0,0,0,0,-0.2515,-0.2527,-0.2536,-0.2545,-0.2585,-0.2626,-0.2629,-0.2629,-0.262,-0.2628,-0.2649,-0.2641,-0.2746,-0.2706,-0.2716,-0.2702,-0.2872,-0.2879,-0.2886,-0.2761,-0.2761,-0.2761,0,0,0,0,0,0,-0.2478,-0.2527,-0.2536,-0.2561,-0.2596,-0.2623,-0.2626,-0.2638,-0.2659,-0.2652,-0.267,-0.2677,-0.2712,-0.2761,-0.2716,-0.2795,-0.2814,-0.2823,-0.2716,-0.2716,-0.2716,-0.2714,-0.2695,0,0,0,0,0,-0.2478,-0.2497,-0.2547,-0.2565,-0.2582,-0.2608,-0.2621,-0.263,-0.2659,-0.2664,-0.2685,-0.2725,-0.2753,-0.2775,-0.2812,-0.2857,-0.2862,-0.2871,-0.287,-0.2869,-0.2885,-0.2863,-0.2858,-0.2913,-0.2913,-0.2913,0,0,-0.2469,-0.2497,-0.2507,-0.2558,-0.2576,-0.2607,-0.2611,-0.2637,-0.2655,-0.2673,-0.2698,-0.2716,-0.2769,-0.2797,-0.2821,-0.2831,-0.2858,-0.2878,-0.2874,-0.2893,-0.2869,-0.2862,-0.2856,-0.2918,-0.2917,-0.2916,0,0,-0.2466,-0.2486,-0.2505,-0.2537,-0.2581,-0.2602,-0.2616,-0.2656,-0.2661,-0.2706,-0.2708,-0.2727,-0.2799,-0.2803,-0.2823,-0.2866,-0.285,-0.2895,-0.2882,-0.2858,-0.2851,-0.2845,-0.2819,-0.2812,-0.2898,-0.2898,-0.2898,0,-0.2452,-0.2489,-0.2517,-0.2547,-0.2572,-0.2603,-0.2634,-0.265,-0.27,-0.271,-0.2712,-0.2775,-0.2796,-0.2813,-0.282,-0.2851,-0.2844,-0.285,-0.2845,-0.284,-0.2835,-0.2812,-0.2805,-0.2893,-0.2894,-0.2894,-0.2895,0,-0.2469,-0.2501,-0.2513,-0.2561,-0.259,-0.262,-0.266,-0.268,-0.2695,-0.2712,-0.2736,-0.2755,-0.2796,-0.2798,-0.2816,-0.2808,-0.2813,-0.2824,-0.2813,-0.282,-0.2798,-0.2792,-0.2885,-0.2887,-0.2889,-0.289,0,0,-0.2433,-0.2512,-0.2515,-0.2543,-0.2601,-0.2627,-0.2657,-0.2697,-0.271,-0.2732,-0.2743,-0.2764,-0.2764,-0.2793,-0.2798,-0.2779,-0.2713,-0.279,-0.2791,-0.2708,-0.2653,-0.2571,-0.2558,-0.2702,-0.2702,-0.2701,-0.2638,0,-0.2439,-0.2497,-0.2535,-0.2582,-0.2616,-0.2653,-0.2683,-0.2714,-0.2735,-0.2752,-0.2748,-0.2767,-0.2765,-0.2769,-0.2744,-0.2741,-0.2701,-0.273,-0.2714,-0.2715,-0.2591,-0.255,-0.2373,-0.2295,-0.2633,-0.2632,-0.2631,0,-0.2441,-0.2482,-0.2533,-0.2604,-0.262,-0.2649,-0.2691,-0.2722,-0.2748,-0.2764,-0.2765,-0.2773,-0.2761,-0.2752,-0.2709,-0.2726,-0.2687,-0.2665,-0.2662,-0.2632,-0.2623,-0.2358,-0.2273,-0.2623,-0.2623,-0.2624,-0.2625,0,-0.2395,-0.2477,-0.2516,-0.2539,-0.262,-0.264,-0.2677,-0.2717,-0.2741,-0.2763,-0.2776,-0.2768,-0.2764,-0.2722,-0.2685,-0.2695,-0.2621,-0.263,-0.2511,-0.2505,-0.238,-0.2364,-0.2572,-0.2572,-0.2572,-0.2572,-0.2572,0,-0.2384,-0.2408,-0.2498,-0.2514,-0.2546,-0.2616,-0.2645,-0.2678,-0.2729,-0.2743,-0.2771,-0.2766,-0.2755,-0.2717,-0.2675,-0.2571,-0.2608,-0.2497,-0.2475,-0.2335,-0.2316,-0.2643,-0.2652,-0.257,-0.257,-0.2571,-0.2571,0,-0.231,-0.238,-0.2417,-0.2502,-0.2523,-0.2536,-0.2616,-0.2643,-0.2703,-0.272,-0.2728,-0.2759,-0.2707,-0.2674,-0.2606,-0.2549,-0.247,-0.2417,-0.2253,-0.2212,-0.2374,-0.2378,-0.2281,-0.2278,-0.2275,-0.2272,-0.227,0,-0.2275,-0.229,-0.2369,-0.2389,-0.2422,-0.2466,-0.2502,-0.2596,-0.2631,-0.2698,-0.2697,-0.268,-0.2617,-0.2498,-0.24,-0.2285,-0.2365,-0.2064,-0.205,-0.2351,-0.234,-0.235,-0.2359,-0.1832,-0.1827,-0.1822,-0.1818,0,-0.218,-0.2209,-0.2237,-0.2275,-0.2315,-0.2349,-0.2412,-0.2437,-0.2541,-0.2572,-0.2564,-0.2521,-0.2424,-0.2218,-0.2096,-0.2014,-0.2075,-0.1968,-0.23,-0.1941,-0.1924,-0.1916,-0.1939,-0.1778,-0.1782,-0.1785,-0.1787,-0.1789,-0.2083,-0.2076,-0.2112,-0.2126,-0.2174,-0.2181,-0.215,-0.2251,-0.2264,-0.227,-0.2351,-0.2231,-0.2167,-0.1876,-0.1752,-0.1662,-0.1807,-0.1718,-0.1733,-0.1753,-0.172,-0.1699,-0.1505,-0.1507,-0.1509,-0.1511,-0.1512,0,-0.1947,-0.195,-0.1963,-0.1963,-0.1935,-0.2013,-0.2044,-0.1988,-0.1952,-0.2027,-0.2,-0.1747,-0.16,-0.1542,-0.1339,-0.1288,-0.129,-0.1228,-0.1234,-0.1274,-0.131,-0.1256,-0.0917,-0.0915,-0.0913,-0.0912,0,0,-0.1877,-0.1826,-0.1823,-0.1699,-0.1703,-0.1592,-0.1565,-0.154,-0.1542,-0.1485,-0.1457,-0.1557,-0.1519,-0.1237,-0.1149,-0.1002,-0.1134,-0.0949,-0.1427,-0.1475,-0.1509,-0.1588,-0.1549,0,0,0,0,0]},{"header":{"parameterUnit":"m.s-1","parameterCategory":2,"la1":30.2991,"la2":30.254,"lo1":-89.0895,"lo2":-89.0444,"dy":0.0017,"dx":0.0017,"nx":28,"ny":28,"refTime":"2024-07-04T09:00:00:Z","depth":"2","parameterNumber":3,"parameterNumberName":"V-component_of_CURRENTS"},"data":[0,0,0,0,0,0,0,0,0,0,0,0,0,0,0,0,0,0,0,0,0,0,0,0,0,0,0,0,0,0,0,0,0,0,0,0,0,0,0,0,0,0,0,0,0,0,0,0,0,0,0,0,0,0,0,0,0,0,-0.0299,-0.0298,0,-0.0208,-0.0207,-0.0206,-0.0142,-0.0141,-0.0141,-0.014,-0.0076,-0.0075,-0.0074,0,0,0,0,0,0,0,0,0,0,0,0,0,-0.0355,-0.0355,-0.0299,-0.0298,-0.0297,-0.0208,-0.0207,-0.0205,-0.0142,-0.0141,-0.0141,-0.014,-0.0077,-0.0075,-0.0074,0,0,0,0,0,0,0,0,0,0,0,0,0,-0.0305,-0.0355,-0.03,-0.0254,-0.0248,-0.0208,-0.0207,-0.0205,-0.0142,-0.0141,-0.014,-0.014,-0.0077,-0.0075,-0.0074,-0.0081,0,0,-0.0069,-0.0068,0,0,0,0,0,0,0,0,-0.0308,-0.0304,-0.0262,-0.0257,-0.0251,-0.0184,-0.0202,-0.0165,-0.0142,-0.0184,-0.014,-0.0139,-0.0115,-0.011,-0.0096,-0.0078,-0.0075,-0.0068,-0.0067,-0.0067,-0.0066,0,0,0,0,0,0,0,-0.0312,-0.0307,-0.0264,-0.026,-0.0254,-0.0215,-0.0208,-0.0195,-0.0157,-0.018,-0.0175,-0.0163,-0.0112,-0.0098,-0.0094,-0.0075,-0.0068,-0.0067,-0.0066,-0.0065,0.0034,0.0036,0,0,0,0,0,0,-0.0325,-0.0311,-0.0267,-0.0261,-0.0277,-0.0215,-0.0207,-0.0208,-0.0156,-0.0147,-0.0164,-0.016,-0.0101,-0.0096,-0.0092,-0.0087,-0.0067,-0.0065,-0.0064,0.0033,0.0035,0.0036,0,0,0,0,0,0,-0.0327,-0.0323,-0.0271,-0.0282,-0.0272,-0.0215,-0.0216,-0.0206,-0.019,-0.0143,-0.0135,-0.0157,-0.01,-0.0094,-0.0077,-0.0085,-0.0064,-0.0063,0.0031,0.0033,0.0035,-0.0085,0,0,0,0,0,0,-0.0329,-0.0324,-0.0334,-0.0284,-0.0272,-0.0254,-0.0217,-0.0205,-0.0183,-0.0178,-0.0135,-0.0128,-0.0099,-0.008,-0.0075,-0.0082,-0.0061,0.0029,0.0032,0.0035,-0.0083,-0.0087,-0.0091,0,0,0,0,0,-0.0332,-0.035,-0.0336,-0.033,-0.0287,-0.0254,-0.0246,-0.0202,-0.0184,-0.0183,-0.0149,-0.0129,-0.0055,-0.0079,-0.0073,-0.008,0.0027,0.0031,0.0034,-0.0082,-0.0087,-0.0091,0,0,0,0,0,0,-0.0376,-0.0343,-0.0327,-0.0333,-0.0299,-0.0243,-0.024,-0.0209,-0.0181,-0.0181,-0.0134,-0.0125,-0.0111,-0.0066,-0.0092,-0.003,-0.0001,0.0004,-0.009,-0.0095,-0.0098,-0.0081,-0.006,0,0,0,0,0,-0.0393,-0.0399,-0.0354,-0.0358,-0.0348,-0.0297,-0.0279,-0.0251,-0.0216,-0.0202,-0.0166,-0.012,-0.0091,-0.0072,-0.0041,-0.0023,0.0033,-0.0008,-0.0012,-0.0016,0.0009,0.0073,0.0076,0.0048,0.0048,0.0048,0,0,-0.0409,-0.0392,-0.0395,-0.0368,-0.0341,-0.0333,-0.0285,-0.0268,-0.0252,-0.0203,-0.0179,-0.0149,-0.009,-0.007,-0.0055,-0.0035,0.0021,-0.0011,-0.0016,0.0012,0.0077,0.0079,0.0081,0.0051,0.005,0.005,0,0,-0.0446,-0.0435,-0.0451,-0.0433,-0.0401,-0.0367,-0.0366,-0.0315,-0.0286,-0.0263,-0.0219,-0.0178,-0.0138,-0.0086,-0.0058,-0.0052,-0.0012,-0.0046,-0.0051,0.0008,0.001,0.0012,0.0064,0.0073,-0.0038,-0.0038,-0.0038,0,-0.0467,-0.0482,-0.0449,-0.0458,-0.0448,-0.0388,-0.0397,-0.0359,-0.0305,-0.0279,-0.0266,-0.0173,-0.0134,-0.0087,-0.0079,-0.0064,-0.0031,-0.006,-0.0002,0.0002,0.0006,0.006,0.007,-0.0043,-0.0043,-0.0042,-0.0042,0,-0.051,-0.0524,-0.0533,-0.0526,-0.051,-0.051,-0.0455,-0.0428,-0.0388,-0.0339,-0.0287,-0.0224,-0.0156,-0.0142,-0.0115,-0.006,-0.0049,-0.0035,-0.0009,0.0001,0.0058,0.007,-0.0051,-0.0049,-0.0047,-0.0046,0,0,-0.0555,-0.0563,-0.0568,-0.0579,-0.0549,-0.0539,-0.0514,-0.0465,-0.0438,-0.0375,-0.033,-0.026,-0.0212,-0.017,-0.0126,-0.0063,-0.0016,-0.0041,-0.0036,-0.002,0.0101,0.0138,0.0156,-0.0017,-0.0014,-0.0013,0.0117,0,-0.0598,-0.0642,-0.0625,-0.0653,-0.0669,-0.0613,-0.0589,-0.0536,-0.0477,-0.0418,-0.0323,-0.0273,-0.0227,-0.0205,-0.0136,-0.0049,0.0017,-0.0052,0.012,0.0126,0.0132,0.0173,0.014,0.0256,0.013,0.0133,0.0134,0,-0.0649,-0.067,-0.0715,-0.0718,-0.0717,-0.0716,-0.0666,-0.0639,-0.0537,-0.0488,-0.0407,-0.0334,-0.0227,-0.0194,-0.002,-0.0078,0.0014,0.0088,0.0094,0.019,0.0189,0.0238,0.0285,0.0157,0.0155,0.0153,0.0152,0,-0.0706,-0.0735,-0.0774,-0.0778,-0.0765,-0.076,-0.0741,-0.0661,-0.0631,-0.053,-0.0494,-0.0361,-0.0288,-0.0159,0.0007,-0.0014,0.0199,0.0189,0.0317,0.0319,0.0366,0.037,0.0327,0.0327,0.0327,0.0327,0.0326,0,-0.0766,-0.0797,-0.0806,-0.0829,-0.0859,-0.0822,-0.0823,-0.0776,-0.0698,-0.0652,-0.0538,-0.0461,-0.0276,-0.0132,0.0003,0.0209,0.0202,0.0343,0.0368,0.0323,0.0321,0.03,0.0295,0.0331,0.033,0.0329,0.0329,0,-0.0829,-0.0836,-0.0883,-0.0888,-0.0894,-0.0915,-0.0898,-0.0886,-0.0804,-0.0739,-0.0709,-0.0525,-0.0329,-0.0142,0.0092,0.0213,0.0395,0.0468,0.0402,0.0419,0.0473,0.0461,0.0625,0.0627,0.063,0.0631,0.0633,0,-0.0867,-0.0897,-0.0942,-0.0978,-0.0987,-0.1009,-0.1019,-0.0953,-0.0925,-0.0763,-0.0729,-0.0524,-0.0349,-0.0,0.0242,0.0494,0.0474,0.06,0.0576,0.0502,0.051,0.0494,0.0479,0.058,0.0581,0.0582,0.0583,0,-0.093,-0.0944,-0.0984,-0.1062,-0.1097,-0.1131,-0.1127,-0.1119,-0.101,-0.0913,-0.0732,-0.0574,-0.0217,0.0083,0.0398,0.0529,0.0553,0.0627,0.0588,0.0505,0.047,0.0474,0.0459,0.059,0.059,0.0589,0.0589,0.0588,-0.0969,-0.1019,-0.1074,-0.1142,-0.119,-0.1228,-0.1239,-0.1194,-0.1122,-0.0954,-0.0767,-0.0504,-0.0189,0.0265,0.05,0.0684,0.0677,0.071,0.0703,0.0697,0.0664,0.0634,0.0779,0.0779,0.078,0.078,0.078,0,-0.1016,-0.1073,-0.115,-0.1227,-0.1285,-0.129,-0.1289,-0.1256,-0.1158,-0.0957,-0.0748,-0.0384,-0.0038,0.0253,0.0584,0.0797,0.0756,0.0795,0.071,0.0701,0.0694,0.0657,0.0773,0.0774,0.0775,0.0775,0,0,-0.1043,-0.1127,-0.1169,-0.128,-0.1335,-0.137,-0.1364,-0.1281,-0.1129,-0.0912,-0.0699,-0.0429,-0.002,0.021,0.0475,0.064,0.0606,0.0635,0.0619,0.0481,0.0471,0.0626,0.0559,0,0,0,0,0]}],[{"header":{"parameterUnit":"m.s-1","parameterCategory":2,"la1":30.2991,"la2":30.254,"lo1":-89.0895,"lo2":-89.0444,"dy":0.0017,"dx":0.0017,"nx":28,"ny":28,"refTime":"2024-07-04T09:00:00:Z","depth":"4","parameterNumber":2,"parameterNumberName":"U-component_of_CURRENTS"},"data":[0,0,0,0,0,0,0,0,0,0,0,0,0,0,0,0,0,0,0,0,0,0,0,0,0,0,0,0,0,0,0,0,0,0,0,0,0,0,0,0,0,0,0,0,0,0,0,0,0,0,0,0,0,0,0,0,0,0,-0.1891,-0.1892,0,-0.193,-0.193,-0.193,-0.1936,-0.1937,-0.1937,-0.1937,-0.1963,-0.1964,-0.1964,0,0,0,0,0,0,0,0,0,0,0,0,0,-0.1754,-0.1756,-0.1891,-0.1892,-0.1893,-0.193,-0.193,-0.193,-0.1936,-0.1937,-0.1937,-0.1937,-0.1963,-0.1964,-0.1964,0,0,0,0,0,0,0,0,0,0,0,0,0,-0.1798,-0.1757,-0.1891,-0.1907,-0.1909,-0.193,-0.193,-0.193,-0.1936,-0.1937,-0.1937,-0.1938,-0.1963,-0.1964,-0.1964,-0.1956,0,0,-0.1966,-0.1966,0,0,0,0,0,0,0,0,-0.1796,-0.1802,-0.1903,-0.1906,-0.1909,-0.1936,-0.1892,-0.194,-0.1936,-0.1917,-0.1937,-0.1938,-0.1958,-0.1959,-0.1954,-0.1957,-0.1958,-0.1966,-0.1966,-0.1966,-0.1966,0,0,0,0,0,0,0,-0.1793,-0.18,-0.1898,-0.1905,-0.1908,-0.189,-0.1896,-0.19,-0.1927,-0.1919,-0.1922,-0.1938,-0.1958,-0.1953,-0.1954,-0.1958,-0.1966,-0.1966,-0.1966,-0.1967,-0.2027,-0.2028,0,0,0,0,0,0,-0.1807,-0.1798,-0.1897,-0.19,-0.1861,-0.1892,-0.1899,-0.192,-0.1928,-0.1932,-0.1938,-0.1939,-0.1952,-0.1954,-0.1955,-0.201,-0.1966,-0.1967,-0.1967,-0.2025,-0.2027,-0.2028,0,0,0,0,0,0,-0.1804,-0.1816,-0.1896,-0.1856,-0.1866,-0.1895,-0.1918,-0.1921,-0.1951,-0.1944,-0.1946,-0.197,-0.1952,-0.1955,-0.1983,-0.2009,-0.1967,-0.1967,-0.2024,-0.2026,-0.2028,-0.2079,0,0,0,0,0,0,-0.18,-0.1814,-0.1838,-0.1857,-0.1869,-0.1932,-0.1918,-0.1921,-0.1962,-0.1964,-0.1972,-0.1972,-0.1953,-0.1982,-0.1983,-0.2009,-0.1968,-0.2022,-0.2025,-0.2027,-0.2076,-0.2082,-0.2088,0,0,0,0,0,-0.1795,-0.182,-0.1839,-0.1852,-0.19,-0.1934,-0.1937,-0.1954,-0.1964,-0.1981,-0.1985,-0.1974,-0.1999,-0.1984,-0.1985,-0.2011,-0.2021,-0.2024,-0.2027,-0.2073,-0.2081,-0.2088,0,0,0,0,0,0,-0.177,-0.1825,-0.1846,-0.1887,-0.1924,-0.1938,-0.196,-0.1977,-0.1993,-0.2002,-0.1989,-0.199,-0.2018,-0.2014,-0.1998,-0.2036,-0.2009,-0.2012,-0.2044,-0.2051,-0.2057,-0.2072,-0.1968,0,0,0,0,0,-0.178,-0.1815,-0.1863,-0.1898,-0.1922,-0.195,-0.197,-0.1988,-0.2006,-0.2015,-0.2022,-0.2027,-0.2024,-0.204,-0.2034,-0.2065,-0.2048,-0.2083,-0.209,-0.2095,-0.2109,-0.2101,-0.2107,-0.2038,-0.2038,-0.2038,0,0,-0.1782,-0.1816,-0.1839,-0.1896,-0.1923,-0.1961,-0.1962,-0.2008,-0.2039,-0.2015,-0.2058,-0.2047,-0.2035,-0.2055,-0.207,-0.2063,-0.2105,-0.2099,-0.2103,-0.2114,-0.2104,-0.2111,-0.2117,-0.204,-0.204,-0.2039,0,0,-0.1792,-0.1837,-0.1871,-0.1907,-0.1968,-0.1987,-0.2014,-0.2055,-0.2077,-0.2117,-0.2097,-0.2114,-0.2125,-0.2118,-0.2114,-0.2159,-0.2129,-0.216,-0.2216,-0.2208,-0.2213,-0.2218,-0.2197,-0.2199,-0.2175,-0.2175,-0.2175,0,-0.1796,-0.1846,-0.1884,-0.1924,-0.1961,-0.2007,-0.205,-0.2077,-0.2122,-0.2139,-0.2143,-0.2157,-0.2154,-0.2166,-0.2182,-0.2174,-0.2158,-0.2185,-0.2215,-0.222,-0.2223,-0.22,-0.2202,-0.2178,-0.2177,-0.2177,-0.2177,0,-0.1821,-0.1876,-0.19,-0.1969,-0.2008,-0.2056,-0.2108,-0.2149,-0.2185,-0.2205,-0.224,-0.2233,-0.2242,-0.2245,-0.223,-0.2258,-0.2232,-0.2212,-0.2194,-0.2233,-0.2207,-0.2208,-0.2182,-0.2181,-0.218,-0.2179,0,0,-0.1793,-0.19,-0.1912,-0.1955,-0.2041,-0.2072,-0.2136,-0.2195,-0.2232,-0.2275,-0.2307,-0.2321,-0.2324,-0.2321,-0.2307,-0.2316,-0.2328,-0.2289,-0.2288,-0.2264,-0.2301,-0.2139,-0.2124,-0.2311,-0.2311,-0.2312,-0.2268,0,-0.1809,-0.1887,-0.1939,-0.2017,-0.2064,-0.2127,-0.2178,-0.2234,-0.2278,-0.2318,-0.2334,-0.2354,-0.2351,-0.2357,-0.2368,-0.2334,-0.2335,-0.2342,-0.227,-0.2268,-0.2115,-0.2121,-0.2314,-0.2268,-0.2268,-0.2269,-0.2269,0,-0.1813,-0.1869,-0.195,-0.2049,-0.2076,-0.213,-0.2214,-0.2264,-0.2327,-0.2359,-0.2393,-0.2398,-0.2426,-0.241,-0.2397,-0.24,-0.2364,-0.2338,-0.2335,-0.2168,-0.2108,-0.2223,-0.227,-0.227,-0.227,-0.227,-0.227,0,-0.1759,-0.1874,-0.1939,-0.1975,-0.209,-0.214,-0.2201,-0.2278,-0.2318,-0.2384,-0.241,-0.2439,-0.245,-0.243,-0.2391,-0.2397,-0.2352,-0.2345,-0.2164,-0.2152,-0.2291,-0.2286,-0.2328,-0.2329,-0.2329,-0.2329,-0.2329,0,-0.1737,-0.1793,-0.1928,-0.196,-0.2031,-0.2123,-0.2193,-0.2253,-0.2335,-0.2365,-0.2426,-0.2431,-0.2458,-0.2432,-0.2396,-0.227,-0.2352,-0.2169,-0.2128,-0.2312,-0.2311,-0.229,-0.2286,-0.2327,-0.2327,-0.2328,-0.2328,0,-0.1658,-0.1754,-0.183,-0.1966,-0.2009,-0.2055,-0.2183,-0.2225,-0.2317,-0.2357,-0.2379,-0.2432,-0.239,-0.2379,-0.2331,-0.2249,-0.2162,-0.2094,-0.2284,-0.2255,-0.1972,-0.1971,-0.1894,-0.1888,-0.1883,-0.1879,-0.1875,0,-0.162,-0.1656,-0.1804,-0.185,-0.1918,-0.2009,-0.2067,-0.2192,-0.2232,-0.2327,-0.2325,-0.2332,-0.2337,-0.2129,-0.2148,-0.2043,-0.2014,-0.1964,-0.1982,-0.1958,-0.1927,-0.1935,-0.1941,-0.1867,-0.1865,-0.1864,-0.1863,0,-0.1531,-0.1601,-0.1663,-0.1749,-0.183,-0.1892,-0.1987,-0.2001,-0.2125,-0.2247,-0.219,-0.2138,-0.2076,-0.2011,-0.193,-0.1866,-0.1999,-0.191,-0.1921,-0.1938,-0.1924,-0.1899,-0.1912,-0.1845,-0.1847,-0.1849,-0.185,0,-0.146,-0.1476,-0.1561,-0.1615,-0.1708,-0.1722,-0.18,-0.1839,-0.1884,-0.2018,-0.1992,-0.1992,-0.2057,-0.1916,-0.1849,-0.1761,-0.1738,-0.1685,-0.1707,-0.1728,-0.1689,-0.1648,-0.1441,0,0,0,0,0,-0.1373,-0.1369,-0.1417,-0.1461,-0.1546,-0.1579,-0.1715,-0.18,-0.1939,-0.185,-0.1914,-0.1846,-0.1738,-0.1743,-0.1609,-0.1759,-0.1738,-0.1598,-0.1689,-0.1744,-0.1765,-0.1733,0,0,0,0,0,0,-0.1315,-0.1352,-0.1356,-0.1302,-0.1302,-0.1359,-0.143,-0.1538,-0.1503,-0.1656,-0.16,-0.1719,-0.1632,-0.176,-0.1558,-0.1559,-0.1576,-0.1624,-0.1618,-0.1733,-0.1751,-0.1768,-0.1742,0,0,0,0,0]},{"header":{"parameterUnit":"m.s-1","parameterCategory":2,"la1":30.2991,"la2":30.254,"lo1":-89.0895,"lo2":-89.0444,"dy":0.0017,"dx":0.0017,"nx":28,"ny":28,"refTime":"2024-07-04T09:00:00:Z","depth":"4","parameterNumber":3,"parameterNumberName":"V-component_of_CURRENTS"},"data":[0,0,0,0,0,0,0,0,0,0,0,0,0,0,0,0,0,0,0,0,0,0,0,0,0,0,0,0,0,0,0,0,0,0,0,0,0,0,0,0,0,0,0,0,0,0,0,0,0,0,0,0,0,0,0,0,0,0,-0.0247,-0.0246,0,-0.0205,-0.0204,-0.0204,-0.0175,-0.0175,-0.0174,-0.0174,-0.0146,-0.0146,-0.0146,0,0,0,0,0,0,0,0,0,0,0,0,0,-0.0275,-0.0275,-0.0247,-0.0246,-0.0245,-0.0205,-0.0204,-0.0204,-0.0175,-0.0175,-0.0174,-0.0174,-0.0147,-0.0146,-0.0146,0,0,0,0,0,0,0,0,0,0,0,0,0,-0.0253,-0.0275,-0.0247,-0.0224,-0.0221,-0.0205,-0.0204,-0.0204,-0.0175,-0.0175,-0.0174,-0.0173,-0.0147,-0.0146,-0.0146,-0.0156,0,0,-0.0144,-0.0144,0,0,0,0,0,0,0,0,-0.0254,-0.0252,-0.0228,-0.0226,-0.0223,-0.0192,-0.0204,-0.0188,-0.0176,-0.0196,-0.0174,-0.0173,-0.0162,-0.016,-0.0157,-0.0155,-0.0154,-0.0144,-0.0144,-0.0144,-0.0144,0,0,0,0,0,0,0,-0.0256,-0.0254,-0.0233,-0.0227,-0.0224,-0.0206,-0.0203,-0.0201,-0.0185,-0.0194,-0.0191,-0.0182,-0.0161,-0.0158,-0.0156,-0.0153,-0.0144,-0.0144,-0.0144,-0.0143,-0.0155,-0.0155,0,0,0,0,0,0,-0.0258,-0.0256,-0.0234,-0.0231,-0.0234,-0.0206,-0.0203,-0.0205,-0.0185,-0.018,-0.0183,-0.0181,-0.0159,-0.0157,-0.0155,-0.0166,-0.0144,-0.0143,-0.0143,-0.0154,-0.0155,-0.0156,0,0,0,0,0,0,-0.0259,-0.0257,-0.0236,-0.024,-0.0235,-0.0207,-0.0209,-0.0204,-0.0201,-0.0176,-0.0172,-0.0184,-0.0158,-0.0156,-0.0161,-0.0164,-0.0143,-0.0143,-0.0154,-0.0155,-0.0155,-0.0187,0,0,0,0,0,0,-0.0261,-0.0258,-0.0268,-0.024,-0.0235,-0.0232,-0.0209,-0.0204,-0.0196,-0.0193,-0.0176,-0.0173,-0.0158,-0.0161,-0.016,-0.0163,-0.0142,-0.0153,-0.0154,-0.0155,-0.0185,-0.0189,-0.0192,0,0,0,0,0,-0.0262,-0.0277,-0.0269,-0.0267,-0.0248,-0.0232,-0.0229,-0.0207,-0.0196,-0.0201,-0.0191,-0.0173,-0.0167,-0.0162,-0.016,-0.0163,-0.0152,-0.0154,-0.0155,-0.0184,-0.0188,-0.0192,0,0,0,0,0,0,-0.0293,-0.0274,-0.0265,-0.0274,-0.0256,-0.0226,-0.023,-0.0212,-0.0208,-0.021,-0.0185,-0.0182,-0.0192,-0.0175,-0.017,-0.017,-0.0155,-0.0156,-0.0177,-0.0181,-0.0185,-0.0154,-0.0142,0,0,0,0,0,-0.0305,-0.0313,-0.0286,-0.0294,-0.0288,-0.0261,-0.0254,-0.0239,-0.0226,-0.0223,-0.0207,-0.0196,-0.0197,-0.0187,-0.0189,-0.0186,-0.0137,-0.0186,-0.0189,-0.0192,-0.0166,-0.0097,-0.0091,-0.016,-0.016,-0.016,0,0,-0.0318,-0.0309,-0.0313,-0.0301,-0.0288,-0.0287,-0.0257,-0.0251,-0.0244,-0.0222,-0.0219,-0.0218,-0.0204,-0.0207,-0.0207,-0.0189,-0.0153,-0.0194,-0.0196,-0.0168,-0.0097,-0.009,-0.0084,-0.0161,-0.0161,-0.0161,0,0,-0.0346,-0.0342,-0.0357,-0.0349,-0.0332,-0.0313,-0.0313,-0.0288,-0.0272,-0.0271,-0.0257,-0.0241,-0.0247,-0.0218,-0.021,-0.0228,-0.0186,-0.0248,-0.0223,-0.0158,-0.015,-0.0143,-0.0093,-0.0081,-0.0234,-0.0234,-0.0234,0,-0.0362,-0.0377,-0.0358,-0.0368,-0.0364,-0.0328,-0.0338,-0.0317,-0.0294,-0.0277,-0.0277,-0.0251,-0.024,-0.0214,-0.0222,-0.0231,-0.0198,-0.0211,-0.0159,-0.0151,-0.0143,-0.0093,-0.0079,-0.0236,-0.0235,-0.0235,-0.0235,0,-0.0394,-0.041,-0.0418,-0.0419,-0.0412,-0.0417,-0.0383,-0.037,-0.0349,-0.0318,-0.0294,-0.0267,-0.024,-0.0243,-0.0238,-0.0187,-0.0186,-0.0183,-0.0143,-0.0137,-0.0086,-0.0071,-0.0238,-0.0237,-0.0237,-0.0237,0,0,-0.0423,-0.0439,-0.0444,-0.0455,-0.0441,-0.0439,-0.0425,-0.0393,-0.0372,-0.0337,-0.0302,-0.0278,-0.0245,-0.0231,-0.0215,-0.0146,-0.0073,-0.0142,-0.0138,-0.0082,0.0059,0.0032,0.0046,-0.0069,-0.0066,-0.0064,0.0065,0,-0.0454,-0.0491,-0.0484,-0.0512,-0.0526,-0.0492,-0.0479,-0.0444,-0.0404,-0.0362,-0.0294,-0.0271,-0.0247,-0.0239,-0.0164,-0.011,-0.0033,-0.0109,0.0038,0.0043,0.0027,0.0063,-0.0055,0.0077,0.008,0.0083,0.0085,0,-0.0488,-0.0507,-0.0548,-0.0556,-0.0558,-0.0565,-0.0532,-0.0517,-0.0439,-0.0406,-0.034,-0.0294,-0.0201,-0.0185,-0.0025,-0.0083,-0.0005,0.0057,0.0063,0.0069,0.0045,0.0075,0.0112,0.011,0.0108,0.0106,0.0105,0,-0.052,-0.0551,-0.0586,-0.0593,-0.0593,-0.0597,-0.059,-0.0532,-0.0511,-0.0431,-0.0401,-0.0287,-0.0233,-0.011,0.0014,-0.0006,0.0194,0.0181,0.0242,0.024,0.024,0.0232,0.0323,0.0323,0.0323,0.0323,0.0322,0,-0.0553,-0.0583,-0.0609,-0.0629,-0.0662,-0.0642,-0.0649,-0.0617,-0.0558,-0.0522,-0.043,-0.0364,-0.0209,-0.0084,0.0026,0.018,0.021,0.0271,0.0285,0.0218,0.0205,0.025,0.024,0.0327,0.0326,0.0325,0.0324,0,-0.0586,-0.0604,-0.065,-0.0671,-0.0685,-0.0709,-0.0713,-0.0703,-0.064,-0.0588,-0.0565,-0.041,-0.0248,-0.0092,0.0113,0.019,0.0337,0.0387,0.0305,0.0307,0.0337,0.0323,0.0474,0.0474,0.0474,0.0475,0.0475,0,-0.0605,-0.0633,-0.0696,-0.0736,-0.0756,-0.0788,-0.0805,-0.076,-0.0737,-0.0606,-0.0575,-0.0409,-0.0296,-0.0017,0.0137,0.0352,0.0376,0.0446,0.0405,0.0361,0.0359,0.0345,0.0331,0.0476,0.0476,0.0476,0.0476,0,-0.0639,-0.0668,-0.0709,-0.0796,-0.0842,-0.088,-0.0891,-0.0876,-0.0794,-0.0733,-0.0562,-0.04,-0.0212,-0.0009,0.0155,0.0309,0.0393,0.045,0.045,0.0413,0.0365,0.0359,0.0346,0.0477,0.0477,0.0477,0.0477,0,-0.0667,-0.0711,-0.0776,-0.0845,-0.0912,-0.0949,-0.0949,-0.0892,-0.0848,-0.0684,-0.0621,-0.04,-0.0256,-0.0028,0.0128,0.0267,0.0297,0.0328,0.0335,0.0335,0.0244,0.0159,0.0246,0,0,0,0,0,-0.0687,-0.0743,-0.0819,-0.0895,-0.096,-0.0991,-0.0992,-0.0968,-0.0877,-0.0764,-0.0685,-0.05,-0.0226,-0.0093,0.0041,0.01,0.0288,0.0259,0.0317,0.0484,0.0482,0.0395,0,0,0,0,0,0,-0.0705,-0.0784,-0.0823,-0.0917,-0.0972,-0.103,-0.1032,-0.0974,-0.0892,-0.0775,-0.0627,-0.0489,-0.0232,-0.0309,0.0037,0.0084,0.0135,0.0405,0.0407,0.0484,0.0483,0.0482,0.0392,0,0,0,0,0]}]]